Погода в Зафарабаде

Узбекистан     40°31′55″N   65°01′13″E
темп.,
°C
ветер,
м/с
пор.,
м/с
влажн.,
%
обл.,
%
осадки,
мм/ч
давл.,
гПа
погр.,
м
22 октября, пт
пт2223:00+8ссз46370 0.0 1030139
02:00+6ссз35440 0.0 103189
05:00+5с33510 0.0 103249
08:00+5св35595 0.0 1034193
11:00+8ссв3345100 0.0 10341021
14:00+10с3233100 0.0 10331191
17:00+10с3330100 0.0 1033997
20:00+8ссв4634100 0.0 1034169
23 октября, сб
сб2323:00+7св610395 0.0 1033227
02:00+6св69435 0.0 1032166
05:00+6св58472 0.0 1031124
08:00+6св58470 0.0 1030207
11:00+13всв56305 0.0 1029588
14:00+16св56230 0.0 10261043
17:00+16св99275 0.0 1025890
20:00+13св915320 0.0 1025365
24 октября, вс
вс2423:00+10св611340 0.0 1024221
02:00+9всв56360 0.0 102391
05:00+8всв45380 0.0 102254
08:00+9всв34360 0.0 102167
11:00+15ссв11240 0.0 1020432
14:00+19ссв22170 0.0 1018884
17:00+20св56140 0.0 1016266
20:00+15св59210 0.0 1016129
25 октября, пн
пн2523:00+13вюв22260 0.0 101612
02:00+12юв33300 0.0 101515
05:00+11ююв44320 0.0 101527
08:00+11ююв46300 0.0 101672
11:00+18ююз67190 0.0 1016638
14:00+21ююз68140 0.0 10141424
17:00+20зюз6916100 0.0 1014330
20:00+16зюз332279 0.0 101519
26 октября, вт
вт2623:00+14ююз332445 0.0 101616
02:00+14ююз3325100 0.0 101619
05:00+13ююз442796 0.0 101731
08:00+12ююз46298 0.0 101884
11:00+18юз562580 0.0 1019558
14:00+21зюз7832100 0.0 10181649
17:00+18зсз8840100 0.0 10191028
20:00+14сз5849100 0.0 1021335